sat.trackr.live / text

‹ back to catalog

COSMOS 2439

NORAD 32956 · 2008-025D

PAYLOAD ACTIVE UNKNOWN

§ Identity

Operator
Country
CIS
Launch date
2008-05-23
Launch site
PLMSC
Launch vehicle
Mass (kg)
RCS (m²)
0.88

External: N2YO · Heavens-Above · Gunter

§ Orbital elements

Epoch: 2026-05-25T03:39:56.962368Z

Period
115.84 min
Inclination
82.5092°
Eccentricity
0.0021282
Mean motion
12.43069591 rev/d
Perigee alt
1,476.9 km
Apogee alt
1,510.4 km
Semi-major
7,871.8 km
B*
-1.9630e-5
RAAN
12.1163°
Arg perigee
7.9116°
Mean anomaly
352.2296°
Rev number
81,685

§ Raw data

COSMOS 24391 32956U 08025D   26145.15274262  .00000007  00000+0 -19630-4 0  99972 32956  82.5092  12.1163 0021282   7.9116 352.2296 12.43069591816853

JSON: /api/v1/satellites/32956 · /tle

For live sub-satellite position, see the globe view (requires WebGL).

§ Visibility from observer

Set your observer location to see the next 7 days of passes ≥ 10°. The values pass through the URL so the page stays shareable.

No JS? Fill the form by hand. The geolocation button needs JavaScript.